Regional Weather Roundup
Issued by NWS

Home | Current Version | Previous Version | Graphics & Text | Print | Product List | Glossary On
Versions: 1 2 3 4 5 6 7 8 9 10 11 12 13 14 15 16 17 18 19 20 21 22 23 24 25 26 27 28 29 30 31 32 33 34 35 36 37 38 39 40 41 42 43 44 45 46 47 48 49 50
350
ASUS43 KDMX 192101
RWRIA

WEATHER ROUNDUP FOR IOWA
NATIONAL WEATHER SERVICE DES MOINES IA
400 PM CDT SAT AUG 19 2017

NOTE: "FAIR" INDICATES FEW OR NO CLOUDS BELOW 12,000 FEET WITH NO
SIGNIFICANT WEATHER AND/OR OBSTRUCTIONS TO VISIBILITY.

* - THESE STATIONS ARE NOT NWS STATIONS...THUS NOT UNDER NWS
QUALITY CONTROL.  THEY ALSO DO NOT REPORT WEATHER SUCH
AS PRECIPITATION OR FOG.

IAZ001>003-012>014-020>022-031>034-043>046-192200-
   NORTHWEST IOWA

CITY           SKY/WX    TMP DP  RH WIND       PRES   REMARKS
CARROLL *      SUNNY     79  66  65 SE3       29.93F HX  81
CHEROKEE *     SUNNY     82  64  54 S8        29.92F HX  83
DENISON *      SUNNY     81  66  61 CALM      29.94S HX  83
LE MARS *      SUNNY     82  63  51 S13       29.90F HX  83
ORANGE CITY *  SUNNY     82  64  54 SE6       29.92F HX  84
SHELDON *      SUNNY     79  63  57 S9        29.91F HX  80
SIOUX CITY     SUNNY     82  64  54 S10       29.90F HX  83
SPENCER        SUNNY     81  63  54 VRB7      29.93F HX  82
STORM LAKE *   SUNNY     79  66  65 S7        29.94S HX  81
$$

IAZ055>058-069>071-079>083-090>094-192200-
   SOUTHWEST IOWA

CITY           SKY/WX    TMP DP  RH WIND       PRES   REMARKS
ATLANTIC *     SUNNY     84  64  51 VRB5      29.92F HX  86
AUDUBON *      SUNNY     82  66  57 SE5       29.94F HX  85
CLARINDA *     SUNNY     88  61  40 CALM      29.94F HX  88
COUNCIL BLFS * SUNNY     84  64  51 SE5       29.93S HX  86
CRESTON *      SUNNY     86  55  35 VRB5      29.95F HX  84
HARLAN  *      SUNNY     82  63  51 S7        29.96S HX  83
LAMONI         SUNNY     89  55  31 NW7       29.93F HX  87
RED OAK *      SUNNY     84  63  48 SE5       29.93F HX  85
SHENANDOAH *   SUNNY     86  57  37 SE6       29.93S HX  85
$$

IAZ047>049-059>061-072>074-084-192200-
   CENTRAL IOWA

CITY           SKY/WX    TMP DP  RH WIND       PRES   REMARKS
AMES           MOSUNNY   81  66  60 S6        29.93F HX  83
ANKENY *       SUNNY     82  63  51 CALM      29.93F HX  83
BOONE *        MOSUNNY   81  64  57 CALM      29.93F HX  82
CHARITON *     SUNNY     86  54  32 W6        29.93F HX  84
DES MOINES     MOSUNNY   85  62  46 E5        29.92F HX  85
GRINNELL*      SUNNY     81  66  60 E7        29.96S HX  83
KNOXVILLE *    SUNNY     86  57  37 W7        29.91F HX  85
MARSHALLTOWN   MOSUNNY   80  65  59 SE6       29.94F HX  82
NEWTON *       MOSUNNY   82  66  57 VRB5      29.94F HX  85
PELLA *        SUNNY     88  57  35 CALM      29.93F HX  86
PERRY *          N/A     82  67  60 E3        29.93F HX  84
$$

IAZ004>006-015-016-023>025-035-036-192200-
   NORTH CENTRAL IOWA

CITY           SKY/WX    TMP DP  RH WIND       PRES   REMARKS
ALGONA *       SUNNY     79  64  61 S8G14     29.94F HX  81
CLARION *      MOSUNNY   77  66  69 S6G14     29.94F
ESTHERVILLE    MOSUNNY   77  67  71 SE8       29.93F
FORT DODGE *   SUNNY     81  64  57 S5        29.94F HX  82
MASON CITY     MOSUNNY   79  62  56 S8        29.96S HX  80
FOREST CITY *    N/A     77  63  61 S5        29.95S
WEBSTER CITY * MOSUNNY   81  64  57 SE7G13    29.92F HX  82
IOWA FALLS *   PTSUNNY   80  65  60 SE6       29.96F HX  82
$$

IAZ007>011-017>019-026>030-037>042-050>054-066-192200-
   NORTHEAST IOWA

CITY           SKY/WX    TMP DP  RH WIND       PRES   REMARKS
CEDAR RAPIDS   MOSUNNY   81  60  48 VRB5      29.95F HX  82
CHARLES CITY * SUNNY     79  63  57 SE6       29.95F HX  80
CLINTON *      SUNNY     80  61  52 VRB3      29.97S HX  81
DECORAH *      SUNNY     77  61  57 VRB6      29.95S
DUBUQUE        SUNNY     78  60  53 VRB3      29.97F
MONTICELLO *   SUNNY     79  63  57 SE5       29.96S HX  80
OELWEIN *      SUNNY     79  61  53 E3        29.97S HX  80
WATERLOO       MOSUNNY   80  59  48 SE6       29.93F HX  81
$$

IAZ064-065-067-068-078-192200-
   EAST CENTRAL IOWA

CITY           SKY/WX    TMP DP  RH WIND       PRES   REMARKS
DAVENPORT      SUNNY     82  60  47 SE3       29.97F HX  82
IOWA CITY      SUNNY     83  62  49 E3        29.96F HX  84
MUSCATINE *    SUNNY     84  61  45 SE5       29.95S HX  84
QUAD CITIES    SUNNY     83  61  47 SE7       29.95S HX  83
$$

IAZ062-063-075>077-085>089-095>099-192200-
   SOUTHEAST IOWA

CITY           SKY/WX    TMP DP  RH WIND       PRES   REMARKS
BURLINGTON     SUNNY     83  67  58 VRB7      29.94F HX  85
FAIRFIELD *    MOSUNNY   86  61  42 NE7       29.92F HX  86
FORT MADISON * PTSUNNY   82  70  65 CALM      29.95S HX  86
KEOKUK *       SUNNY     86  68  54 NE10      29.92F HX  89
OSKALOOSA *      N/A     85  63  47 NE3       29.93S HX  86
OTTUMWA        MOSUNNY   86  64  47 NE8       29.91F HX  87
WASHINGTON *   SUNNY     82  64  54 E6        29.96S HX  84
$$

ABBREVIATIONS USED IN REMARKS
   TC - TEMPERATURES IN CELSIUS
  WCI - WIND CHILL INDEX
   HX - HEAT INDEX
  VSB - VISIBILITY
$$





USA.gov is the U.S. government's official web portal to all federal, state and local government web resources and services.